Location: *
(58.7167°N, 26.1833°E)
Time: 09:28:08
(UTC+00:00)

Mayak - Pass Details

Date: 25 August 2019
Orbit: 581 x 603 km, 97.6° (Epoch: 24 September)

Event Time Altitude Azimuth Distance (km) Brightness Sun altitude
Rises 21:24:03 0° 15° (NNE) 2,847 3.3 -19.8°
Reaches altitude 10° 21:26:14 10° 14° (NNE) 1,937 2.3 -19.9°
Maximum altitude 21:30:27 82° 288° (WNW) 604 -1.3 -20.0°
Enters shadow 21:31:36 47° 207° (SSW) 787 -1.0 -20.0°
